Wetterdaten: Montag, 09.02.2015
Datum Zeit Temp. A. Feuchte A. Luftdruck Regen Wind Richtung Richtung Sonnenschein ET UV Solar Taupunkt Windchill Windben Empfang
09.02.2015 00:00 -3,4 C 59 % 1026,7 hPa 0,0 l/m 0,7 km/h (0 Bft) SW 217 0 min 0,000 mm 0,0 UV-I 0 W/m -10,2 C -3,4 C 4,0 km/h (1 Bft) 0,00 %
09.02.2015 00:15 -3,6 C 61 % 1026,6 hPa 0,0 l/m 0,7 km/h (0 Bft) W-NW 285 0 min 0,000 mm 0,0 UV-I 0 W/m -10,0 C -3,6 C 4,0 km/h (1 Bft) 0,00 %
09.02.2015 00:30 -3,7 C 63 % 1026,4 hPa 0,0 l/m 4,7 km/h (1 Bft) W-SW 255 0 min 0,000 mm 0,0 UV-I 0 W/m -9,7 C -3,7 C 7,9 km/h (2 Bft) 0,00 %
09.02.2015 00:45 -3,4 C 62 % 1026,5 hPa 0,0 l/m 0,0 km/h (0 Bft) S-SW 208 0 min 0,000 mm 0,0 UV-I 0 W/m -9,6 C -3,4 C 0,0 km/h (0 Bft) 0,00 %
09.02.2015 01:00 -3,5 C 62 % 1026,6 hPa 0,0 l/m 0,0 km/h (0 Bft) S 176 0 min 0,000 mm 0,0 UV-I 0 W/m -9,7 C -3,5 C 0,0 km/h (0 Bft) 0,00 %
09.02.2015 01:15 -3,3 C 59 % 1026,5 hPa 0,0 l/m 1,8 km/h (1 Bft) W-SW 256 0 min 0,000 mm 0,0 UV-I 0 W/m -10,1 C -3,3 C 4,0 km/h (1 Bft) 0,00 %
09.02.2015 01:30 -3,2 C 56 % 1026,4 hPa 0,0 l/m 2,9 km/h (1 Bft) W-SW 250 0 min 0,000 mm 0,0 UV-I 0 W/m -10,7 C -3,2 C 4,0 km/h (1 Bft) 0,00 %
09.02.2015 01:45 -3,0 C 53 % 1026,7 hPa 0,0 l/m 4,0 km/h (1 Bft) W-SW 250 0 min 0,000 mm 0,0 UV-I 0 W/m -11,2 C -3,0 C 7,9 km/h (2 Bft) 0,00 %
09.02.2015 02:00 -2,8 C 51 % 1026,8 hPa 0,0 l/m 2,2 km/h (1 Bft) W-SW 252 0 min 0,000 mm 0,0 UV-I 0 W/m -11,5 C -2,8 C 4,0 km/h (1 Bft) 0,00 %
09.02.2015 02:15 -2,8 C 51 % 1026,8 hPa 0,0 l/m 1,8 km/h (1 Bft) NW 313 0 min 0,000 mm 0,0 UV-I 0 W/m -11,5 C -2,8 C 4,0 km/h (1 Bft) 0,00 %
09.02.2015 02:30 -2,8 C 50 % 1027,0 hPa 0,0 l/m 9,0 km/h (2 Bft) W-SW 257 0 min 0,000 mm 0,0 UV-I 0 W/m -11,7 C -5,6 C 15,8 km/h (3 Bft) 0,00 %
09.02.2015 02:45 -2,6 C 49 % 1026,9 hPa 0,0 l/m 4,3 km/h (1 Bft) W-SW 255 0 min 0,000 mm 0,0 UV-I 0 W/m -11,8 C -2,6 C 7,9 km/h (2 Bft) 0,00 %
09.02.2015 03:00 -2,5 C 52 % 1026,6 hPa 0,0 l/m 1,4 km/h (1 Bft) W 276 0 min 0,000 mm 0,0 UV-I 0 W/m -11,0 C -2,5 C 4,0 km/h (1 Bft) 0,00 %
09.02.2015 03:15 -2,6 C 48 % 1026,8 hPa 0,0 l/m 4,7 km/h (1 Bft) W-SW 251 0 min 0,000 mm 0,0 UV-I 0 W/m -12,1 C -2,6 C 7,9 km/h (2 Bft) 0,00 %
09.02.2015 03:30 -2,6 C 48 % 1026,2 hPa 0,0 l/m 10,8 km/h (2 Bft) W-SW 254 0 min 0,000 mm 0,0 UV-I 0 W/m -12,1 C -7,0 C 15,8 km/h (3 Bft) 0,00 %
09.02.2015 03:45 -2,6 C 48 % 1025,7 hPa 0,0 l/m 9,4 km/h (2 Bft) S-SW 195 0 min 0,000 mm 0,0 UV-I 0 W/m -12,1 C -5,8 C 11,9 km/h (2 Bft) 0,00 %
09.02.2015 04:00 -2,6 C 49 % 1026,1 hPa 0,0 l/m 4,7 km/h (1 Bft) W-SW 253 0 min 0,000 mm 0,0 UV-I 0 W/m -11,8 C -2,6 C 7,9 km/h (2 Bft) 0,00 %
09.02.2015 04:15 -2,7 C 48 % 1026,1 hPa 0,0 l/m 3,2 km/h (1 Bft) W-SW 255 0 min 0,000 mm 0,0 UV-I 0 W/m -12,2 C -2,7 C 7,9 km/h (2 Bft) 0,00 %
09.02.2015 04:30 -2,6 C 48 % 1025,7 hPa 0,0 l/m 2,2 km/h (1 Bft) W-SW 252 0 min 0,000 mm 0,0 UV-I 0 W/m -12,1 C -2,6 C 4,0 km/h (1 Bft) 0,00 %
09.02.2015 04:45 -2,6 C 47 % 1026,0 hPa 0,0 l/m 9,0 km/h (2 Bft) W-SW 251 0 min 0,000 mm 0,0 UV-I 0 W/m -12,3 C -5,4 C 11,9 km/h (2 Bft) 0,00 %
09.02.2015 05:00 -2,6 C 48 % 1025,9 hPa 0,0 l/m 5,8 km/h (2 Bft) W-SW 256 0 min 0,000 mm 0,0 UV-I 0 W/m -12,1 C -2,6 C 7,9 km/h (2 Bft) 0,00 %
09.02.2015 05:15 -2,8 C 49 % 1026,1 hPa 0,0 l/m 7,2 km/h (2 Bft) N-NW 336 0 min 0,000 mm 0,0 UV-I 0 W/m -12,0 C -3,7 C 7,9 km/h (2 Bft) 0,00 %
09.02.2015 05:30 -2,8 C 49 % 1025,7 hPa 0,0 l/m 9,0 km/h (2 Bft) W-SW 253 0 min 0,000 mm 0,0 UV-I 0 W/m -12,0 C -5,6 C 15,8 km/h (3 Bft) 0,00 %
09.02.2015 05:45 -3,1 C 51 % 1025,8 hPa 0,0 l/m 0,4 km/h (0 Bft) N-NW 345 0 min 0,000 mm 0,0 UV-I 0 W/m -11,8 C -3,1 C 4,0 km/h (1 Bft) 0,00 %
09.02.2015 06:00 -3,2 C 51 % 1026,0 hPa 0,0 l/m 1,4 km/h (1 Bft) O 80 0 min 0,000 mm 0,0 UV-I 0 W/m -11,9 C -3,2 C 4,0 km/h (1 Bft) 0,00 %
09.02.2015 06:15 -3,2 C 52 % 1025,8 hPa 0,0 l/m 1,4 km/h (1 Bft) S 172 0 min 0,000 mm 0,0 UV-I 0 W/m -11,6 C -3,2 C 4,0 km/h (1 Bft) 0,00 %
09.02.2015 06:30 -3,1 C 51 % 1025,4 hPa 0,0 l/m 0,4 km/h (0 Bft) NW 314 0 min 0,000 mm 0,0 UV-I 0 W/m -11,8 C -3,1 C 4,0 km/h (1 Bft) 0,00 %
09.02.2015 06:45 -3,1 C 51 % 1025,0 hPa 0,0 l/m 2,2 km/h (1 Bft) W-SW 256 0 min 0,000 mm 0,0 UV-I 0 W/m -11,8 C -3,1 C 4,0 km/h (1 Bft) 0,00 %
09.02.2015 07:00 -3,0 C 51 % 1025,2 hPa 0,0 l/m 15,5 km/h (3 Bft) N-NW 332 0 min 0,000 mm 0,0 UV-I 0 W/m -11,7 C -10,9 C 19,8 km/h (3 Bft) 0,00 %
09.02.2015 07:15 -2,9 C 51 % 1025,4 hPa 0,0 l/m 7,2 km/h (2 Bft) W-SW 240 0 min 0,000 mm 0,0 UV-I 0 W/m -11,6 C -3,8 C 7,9 km/h (2 Bft) 0,00 %
09.02.2015 07:30 -2,8 C 51 % 1025,3 hPa 0,0 l/m 4,0 km/h (1 Bft) W 264 0 min 0,000 mm 0,0 UV-I 0 W/m -11,5 C -2,8 C 11,9 km/h (2 Bft) 0,00 %
09.02.2015 07:45 -2,7 C 53 % 1025,1 hPa 0,0 l/m 15,8 km/h (3 Bft) W-SW 252 0 min 0,000 mm 0,0 UV-I 2 W/m -10,9 C -10,8 C 32,0 km/h (5 Bft) 0,00 %
09.02.2015 08:00 -3,1 C 61 % 1024,8 hPa 0,0 l/m 7,9 km/h (2 Bft) W-SW 251 0 min 0,000 mm 0,0 UV-I 10 W/m -9,5 C -4,8 C 19,8 km/h (3 Bft) 0,00 %
09.02.2015 08:15 -3,7 C 70 % 1025,6 hPa 0,0 l/m 9,0 km/h (2 Bft) N 355 0 min 0,000 mm 0,0 UV-I 21 W/m -8,4 C -6,6 C 11,9 km/h (2 Bft) 0,00 %
09.02.2015 08:30 -3,8 C 73 % 1025,3 hPa 0,0 l/m 3,2 km/h (1 Bft) W-SW 250 0 min 0,000 mm 0,0 UV-I 26 W/m -7,9 C -3,8 C 7,9 km/h (2 Bft) 0,00 %
09.02.2015 08:45 -3,8 C 75 % 1025,2 hPa 0,0 l/m 8,3 km/h (2 Bft) W-SW 256 0 min 0,000 mm 1,0 UV-I 33 W/m -7,6 C -6,0 C 11,9 km/h (2 Bft) 0,00 %
09.02.2015 09:00 -3,7 C 76 % 1025,0 hPa 0,0 l/m 15,8 km/h (3 Bft) W-SW 242 0 min 0,000 mm 1,0 UV-I 55 W/m -7,3 C -12,0 C 19,8 km/h (3 Bft) 0,00 %
09.02.2015 09:15 -3,6 C 76 % 1025,2 hPa 0,0 l/m 2,2 km/h (1 Bft) W-NW 294 0 min 0,000 mm 1,0 UV-I 72 W/m -7,2 C -3,6 C 4,0 km/h (1 Bft) 0,00 %
09.02.2015 09:30 -3,5 C 76 % 1025,0 hPa 0,0 l/m 1,8 km/h (1 Bft) SW 230 0 min 0,000 mm 1,0 UV-I 85 W/m -7,1 C -3,5 C 4,0 km/h (1 Bft) 0,00 %
09.02.2015 09:45 -3,4 C 76 % 1024,8 hPa 0,0 l/m 15,5 km/h (3 Bft) W-SW 255 0 min 0,000 mm 1,0 UV-I 88 W/m -7,0 C -11,4 C 19,8 km/h (3 Bft) 0,00 %
09.02.2015 10:00 -3,4 C 75 % 1025,0 hPa 0,0 l/m 16,6 km/h (3 Bft) W-NW 287 0 min 0,000 mm 1,0 UV-I 83 W/m -7,2 C -12,1 C 24,1 km/h (4 Bft) 0,00 %
09.02.2015 10:15 -3,2 C 75 % 1024,9 hPa 0,0 l/m 1,8 km/h (1 Bft) N 356 0 min 0,000 mm 1,0 UV-I 112 W/m -7,0 C -3,2 C 4,0 km/h (1 Bft) 0,00 %
09.02.2015 10:30 -3,1 C 75 % 1024,6 hPa 0,0 l/m 11,9 km/h (2 Bft) W-SW 253 0 min 0,000 mm 1,0 UV-I 120 W/m -6,9 C -8,5 C 15,8 km/h (3 Bft) 0,00 %
09.02.2015 10:45 -3,0 C 76 % 1024,6 hPa 0,0 l/m 6,8 km/h (2 Bft) W-SW 249 0 min 0,000 mm 1,0 UV-I 126 W/m -6,6 C -3,4 C 11,9 km/h (2 Bft) 0,00 %
09.02.2015 11:00 -3,0 C 76 % 1024,6 hPa 0,0 l/m 5,4 km/h (1 Bft) SW 233 0 min 0,000 mm 1,0 UV-I 101 W/m -6,6 C -3,0 C 7,9 km/h (2 Bft) 0,00 %
09.02.2015 11:15 -2,9 C 75 % 1024,8 hPa 0,0 l/m 4,7 km/h (1 Bft) NW 304 0 min 0,000 mm 1,0 UV-I 95 W/m -6,7 C -2,9 C 11,9 km/h (2 Bft) 0,00 %
09.02.2015 11:30 -2,9 C 75 % 1024,4 hPa 0,0 l/m 9,7 km/h (2 Bft) W-SW 255 0 min 0,000 mm 1,0 UV-I 92 W/m -6,7 C -6,4 C 15,8 km/h (3 Bft) 0,00 %
09.02.2015 11:45 -2,8 C 74 % 1024,1 hPa 0,0 l/m 6,5 km/h (2 Bft) W-SW 254 0 min 0,000 mm 1,0 UV-I 93 W/m -6,8 C -2,9 C 11,9 km/h (2 Bft) 0,00 %
09.02.2015 12:00 -2,7 C 73 % 1024,3 hPa 0,0 l/m 0,7 km/h (0 Bft) S 177 0 min 0,000 mm 1,0 UV-I 103 W/m -6,9 C -2,7 C 4,0 km/h (1 Bft) 0,00 %
09.02.2015 12:15 -2,6 C 72 % 1024,4 hPa 0,0 l/m 5,4 km/h (1 Bft) O-SO 108 0 min 0,000 mm 1,0 UV-I 97 W/m -6,9 C -2,6 C 7,9 km/h (2 Bft) 0,00 %
09.02.2015 12:30 -2,4 C 75 % 1024,1 hPa 0,0 l/m 9,0 km/h (2 Bft) W-SW 256 0 min 0,000 mm 1,0 UV-I 102 W/m -6,2 C -5,2 C 11,9 km/h (2 Bft) 0,00 %
09.02.2015 12:45 -2,3 C 75 % 1024,2 hPa 0,0 l/m 3,2 km/h (1 Bft) W-SW 244 0 min 0,000 mm 1,0 UV-I 95 W/m -6,1 C -2,3 C 7,9 km/h (2 Bft) 0,00 %
09.02.2015 13:00 -2,2 C 75 % 1023,9 hPa 0,0 l/m 5,8 km/h (2 Bft) W-SW 250 0 min 0,000 mm 1,0 UV-I 97 W/m -6,0 C -2,2 C 7,9 km/h (2 Bft) 0,00 %
09.02.2015 13:15 -2,1 C 75 % 1023,5 hPa 0,0 l/m 20,9 km/h (4 Bft) W-SW 255 0 min 0,000 mm 1,0 UV-I 81 W/m -5,9 C -12,8 C 28,1 km/h (4 Bft) 0,00 %
09.02.2015 13:30 -2,1 C 75 % 1023,6 hPa 0,0 l/m 4,7 km/h (1 Bft) N 357 0 min 0,000 mm 1,0 UV-I 81 W/m -5,9 C -2,1 C 15,8 km/h (3 Bft) 0,00 %
09.02.2015 13:45 -1,9 C 74 % 1023,7 hPa 0,0 l/m 9,0 km/h (2 Bft) W-SW 255 0 min 0,000 mm 1,0 UV-I 67 W/m -5,9 C -4,6 C 11,9 km/h (2 Bft) 0,00 %
09.02.2015 14:00 -1,8 C 73 % 1022,8 hPa 0,0 l/m 9,7 km/h (2 Bft) W-SW 256 0 min 0,000 mm 1,0 UV-I 72 W/m -6,0 C -5,2 C 19,8 km/h (3 Bft) 0,00 %
09.02.2015 14:15 -1,5 C 72 % 1023,7 hPa 0,0 l/m 1,8 km/h (1 Bft) S 180 0 min 0,000 mm 1,0 UV-I 70 W/m -5,9 C -1,5 C 4,0 km/h (1 Bft) 0,00 %
09.02.2015 14:30 -1,4 C 72 % 1023,7 hPa 0,0 l/m 16,6 km/h (3 Bft) S 184 0 min 0,000 mm 1,0 UV-I 53 W/m -5,8 C -9,6 C 24,1 km/h (4 Bft) 0,00 %
09.02.2015 14:45 -1,2 C 71 % 1023,7 hPa 0,0 l/m 16,6 km/h (3 Bft) W-SW 253 0 min 0,000 mm 1,0 UV-I 50 W/m -5,8 C -9,4 C 19,8 km/h (3 Bft) 0,00 %
09.02.2015 15:00 -1,0 C 71 % 1023,3 hPa 0,0 l/m 4,7 km/h (1 Bft) O 95 0 min 0,000 mm 1,0 UV-I 61 W/m -5,6 C -1,0 C 11,9 km/h (2 Bft) 0,00 %
09.02.2015 15:15 -0,8 C 70 % 1023,4 hPa 0,0 l/m 9,0 km/h (2 Bft) NO 54 0 min 0,000 mm 1,0 UV-I 59 W/m -5,6 C -3,4 C 15,8 km/h (3 Bft) 0,00 %
09.02.2015 15:30 -0,7 C 70 % 1023,7 hPa 0,0 l/m 27,4 km/h (4 Bft) W-SW 252 0 min 0,000 mm 0,0 UV-I 48 W/m -5,5 C -13,5 C 36,0 km/h (5 Bft) 0,00 %
09.02.2015 15:45 -0,5 C 69 % 1023,7 hPa 0,0 l/m 17,3 km/h (3 Bft) W-SW 250 0 min 0,000 mm 0,0 UV-I 34 W/m -5,5 C -8,9 C 19,8 km/h (3 Bft) 0,00 %
09.02.2015 16:00 -0,5 C 69 % 1024,0 hPa 0,0 l/m 9,4 km/h (2 Bft) W-SW 250 0 min 0,000 mm 0,0 UV-I 21 W/m -5,5 C -3,5 C 15,8 km/h (3 Bft) 0,00 %
09.02.2015 16:15 -0,4 C 70 % 1024,1 hPa 0,0 l/m 9,4 km/h (2 Bft) W-SW 250 0 min 0,000 mm 0,0 UV-I 18 W/m -5,2 C -3,4 C 11,9 km/h (2 Bft) 0,00 %
09.02.2015 16:30 -0,4 C 70 % 1024,1 hPa 0,0 l/m 9,7 km/h (2 Bft) W-NW 289 0 min 0,000 mm 0,0 UV-I 11 W/m -5,2 C -3,6 C 11,9 km/h (2 Bft) 0,00 %
09.02.2015 16:45 -0,3 C 70 % 1024,1 hPa 0,0 l/m 11,9 km/h (2 Bft) S-SW 204 0 min 0,000 mm 0,0 UV-I 3 W/m -5,1 C -5,3 C 15,8 km/h (3 Bft) 0,00 %
09.02.2015 17:00 -0,2 C 70 % 1024,2 hPa 0,0 l/m 9,7 km/h (2 Bft) W-SW 251 0 min 0,000 mm 0,0 UV-I 0 W/m -5,0 C -3,4 C 15,8 km/h (3 Bft) 0,00 %
09.02.2015 17:15 -0,1 C 70 % 1024,4 hPa 0,0 l/m 5,8 km/h (2 Bft) N 1 0 min 0,000 mm 0,0 UV-I 0 W/m -4,9 C -0,1 C 7,9 km/h (2 Bft) 0,00 %
09.02.2015 17:30 0,0 C 69 % 1024,4 hPa 0,0 l/m 16,6 km/h (3 Bft) W-SW 253 0 min 0,000 mm 0,0 UV-I 0 W/m -5,0 C -7,9 C 24,1 km/h (4 Bft) 0,00 %
09.02.2015 17:45 0,1 C 69 % 1024,7 hPa 0,0 l/m 6,8 km/h (2 Bft) W-SW 255 0 min 0,000 mm 0,0 UV-I 0 W/m -4,9 C -0,3 C 11,9 km/h (2 Bft) 0,00 %
09.02.2015 18:00 0,2 C 68 % 1024,7 hPa 0,0 l/m 14,8 km/h (3 Bft) W-SW 252 0 min 0,000 mm 0,0 UV-I 0 W/m -5,0 C -6,6 C 19,8 km/h (3 Bft) 0,00 %
09.02.2015 18:15 0,3 C 67 % 1025,1 hPa 0,0 l/m 16,6 km/h (3 Bft) SW 232 0 min 0,000 mm 0,0 UV-I 0 W/m -5,1 C -7,5 C 19,8 km/h (3 Bft) 0,00 %
09.02.2015 18:30 0,4 C 67 % 1025,2 hPa 0,0 l/m 3,2 km/h (1 Bft) N 349 0 min 0,000 mm 0,0 UV-I 0 W/m -5,0 C 0,4 C 7,9 km/h (2 Bft) 0,00 %
09.02.2015 18:45 0,3 C 69 % 1025,2 hPa 0,0 l/m 5,4 km/h (1 Bft) SW 224 0 min 0,000 mm 0,0 UV-I 0 W/m -4,7 C 0,3 C 7,9 km/h (2 Bft) 0,00 %
09.02.2015 19:00 0,4 C 70 % 1025,7 hPa 0,0 l/m 4,0 km/h (1 Bft) S-SW 201 0 min 0,000 mm 0,0 UV-I 0 W/m -4,4 C 0,4 C 7,9 km/h (2 Bft) 0,00 %
09.02.2015 19:15 0,3 C 70 % 1026,0 hPa 0,0 l/m 5,4 km/h (1 Bft) W-SW 255 0 min 0,000 mm 0,0 UV-I 0 W/m -4,5 C 0,3 C 11,9 km/h (2 Bft) 0,00 %
09.02.2015 19:30 0,4 C 70 % 1026,1 hPa 0,0 l/m 13,3 km/h (3 Bft) W-SW 250 0 min 0,000 mm 0,0 UV-I 0 W/m -4,4 C -5,4 C 28,1 km/h (4 Bft) 0,00 %
09.02.2015 19:45 0,4 C 70 % 1026,2 hPa 0,0 l/m 3,2 km/h (1 Bft) NO 48 0 min 0,000 mm 0,0 UV-I 0 W/m -4,4 C 0,4 C 7,9 km/h (2 Bft) 0,00 %
09.02.2015 20:00 0,4 C 69 % 1026,3 hPa 0,0 l/m 9,4 km/h (2 Bft) W 278 0 min 0,000 mm 0,0 UV-I 0 W/m -4,6 C -2,5 C 15,8 km/h (3 Bft) 0,00 %
09.02.2015 20:15 0,5 C 69 % 1026,2 hPa 0,0 l/m 6,8 km/h (2 Bft) S-SW 211 0 min 0,000 mm 0,0 UV-I 0 W/m -4,5 C 0,1 C 15,8 km/h (3 Bft) 0,00 %
09.02.2015 20:30 0,5 C 68 % 1026,5 hPa 0,0 l/m 8,3 km/h (2 Bft) W-SW 255 0 min 0,000 mm 0,0 UV-I 0 W/m -4,7 C -1,4 C 11,9 km/h (2 Bft) 0,00 %
09.02.2015 20:45 0,7 C 67 % 1026,6 hPa 0,0 l/m 2,2 km/h (1 Bft) N-NW 330 0 min 0,000 mm 0,0 UV-I 0 W/m -4,7 C 0,7 C 7,9 km/h (2 Bft) 0,00 %
09.02.2015 21:00 0,7 C 66 % 1026,6 hPa 0,0 l/m 4,3 km/h (1 Bft) S 189 0 min 0,000 mm 0,0 UV-I 0 W/m -4,9 C 0,7 C 7,9 km/h (2 Bft) 0,00 %
09.02.2015 21:15 0,8 C 65 % 1026,6 hPa 0,0 l/m 17,3 km/h (3 Bft) W-SW 250 0 min 0,000 mm 0,0 UV-I 0 W/m -5,0 C -7,3 C 19,8 km/h (3 Bft) 0,00 %
09.02.2015 21:30 0,9 C 65 % 1026,5 hPa 0,0 l/m 9,0 km/h (2 Bft) S 173 0 min 0,000 mm 0,0 UV-I 0 W/m -4,9 C -1,6 C 15,8 km/h (3 Bft) 0,00 %
09.02.2015 21:45 0,9 C 65 % 1026,5 hPa 0,0 l/m 4,3 km/h (1 Bft) SW 231 0 min 0,000 mm 0,0 UV-I 0 W/m -4,9 C 0,9 C 7,9 km/h (2 Bft) 0,00 %
09.02.2015 22:00 0,9 C 65 % 1026,9 hPa 0,0 l/m 6,8 km/h (2 Bft) NW 319 0 min 0,000 mm 0,0 UV-I 0 W/m -4,9 C 0,5 C 11,9 km/h (2 Bft) 0,00 %
09.02.2015 22:15 1,0 C 65 % 1026,7 hPa 0,0 l/m 0,7 km/h (0 Bft) N-NW 340 0 min 0,000 mm 0,0 UV-I 0 W/m -4,8 C 1,0 C 4,0 km/h (1 Bft) 0,00 %
09.02.2015 22:30 1,1 C 65 % 1026,6 hPa 0,0 l/m 5,8 km/h (2 Bft) W-NW 291 0 min 0,000 mm 0,0 UV-I 0 W/m -4,7 C 1,1 C 11,9 km/h (2 Bft) 0,00 %
09.02.2015 22:45 1,1 C 65 % 1026,8 hPa 0,0 l/m 1,4 km/h (1 Bft) W-SW 255 0 min 0,000 mm 0,0 UV-I 0 W/m -4,7 C 1,1 C 4,0 km/h (1 Bft) 0,00 %
09.02.2015 23:00 1,1 C 65 % 1026,9 hPa 0,0 l/m 9,0 km/h (2 Bft) W 262 0 min 0,000 mm 0,0 UV-I 0 W/m -4,7 C -1,4 C 11,9 km/h (2 Bft) 0,00 %
09.02.2015 23:15 1,1 C 65 % 1027,0 hPa 0,0 l/m 4,3 km/h (1 Bft) W-SW 250 0 min 0,000 mm 0,0 UV-I 0 W/m -4,7 C 1,1 C 7,9 km/h (2 Bft) 0,00 %
09.02.2015 23:30 1,1 C 66 % 1027,1 hPa 0,0 l/m 5,8 km/h (2 Bft) N-NO 30 0 min 0,000 mm 0,0 UV-I 0 W/m -4,5 C 1,1 C 7,9 km/h (2 Bft) 0,00 %
09.02.2015 23:45 1,1 C 66 % 1027,1 hPa 0,0 l/m 5,8 km/h (2 Bft) W-SW 256 0 min 0,000 mm 0,0 UV-I 0 W/m -4,5 C 1,1 C 11,9 km/h (2 Bft) 0,00 %
_ Min-Zeit 08:30 04:45 14:00 - 00:45 - - - - - - 04:45 15:30 00:45 00:00
Minimum _ -3,8 C 47 % 1022,8 hPa - 0,0 km/h (0 Bft) - - - - - - -12,3 C -13,5 C 0,0 km/h (0 Bft) 0,00 %
_ Max-Zeit 22:30 09:00 23:30 00:00 15:30 - - 00:00 00:00 08:45 10:45 19:00 22:30 15:30 00:00
Maximum _ 1,1 C 76 % 1027,1 hPa 0,0 l/m 27,4 km/h
W-SW (4 Bft)
- - 0 min 0,000 mm 1,0 UV-I 126 W/m -4,4 C 1,1 C 36,0 km/h
W-SW (5 Bft)
0,00 %
Durchschnitt _ -1,6 C 64 % 1025,4 hPa #0,0 l/m 7,2 km/h (2 Bft) W-SW - #0 min. #0,000 mm 1,0 UV-I 66 W/m -7,6 C -3,7 C 11,6 km/h (2 Bft) 0,00 %